Location: ?????
(30.2541°N, 31.0910°E)
Time: 07:02:24
(UTC+00:00)

Cosmos 1666 Rocket - Pass Details

Date: 27 September 2022
Orbit: 602 x 633 km, 82.5° (Epoch: 28 November)

Event Time Altitude Azimuth Distance (km) Brightness Sun altitude
Rises 02:35:31 0° 346° (NNW) 2,923 7.0 -16.1°
Reaches altitude 10° 02:37:49 10° 340° (NNW) 2,014 6.1 -15.7°
Maximum altitude 02:42:05 46° 268° (W) 851 3.8 -14.7°
Drops below altitude 10° 02:46:20 10° 195° (SSW) 2,006 6.0 -13.8°
Sets 02:48:38 0° 189° (S) 2,909 6.9 -13.3°
